This demonstration page uses our WeatherBlox Daily Observations layout. Learn more.

Left ArrowRight Arrow

38.88101, -77.10428

Hourly Observations for May 23, 2021

Temp ( °F °C ) Dew Point ( °F °C ) Humidity (%) Winds ( mph kmh ) Pressure ( in mb ) Visibility ( mi km ) Precip ( " mm )
12:52 am 00:52 Mostly Cloudy 79 26.1 52 11.1 39 39 W 7 11 30.12 1020 10 16 N/A
1:52 am 01:52 Mostly Cloudy 78 25.6 53 11.7 42 42 W 8 13 30.10 1019 10 16 N/A
2:52 am 02:52 Mostly Cloudy 76 24.4 54 12.2 47 47 W 6 9 30.09 1019 10 16 N/A
3:52 am 03:52 Mostly Cloudy 75 23.9 53 11.7 46 46 N N/A 30.08 1019 10 16 N/A
4:52 am 04:52 Mostly Cloudy 76 24.4 54 12.2 47 47 W 5 7 30.08 1019 10 16 N/A
5:52 am 05:52 Cloudy 76 24.4 55 12.8 48 48 NW 6 9 30.09 1019 10 16 N/A
6:52 am 06:52 Mostly Cloudy 76 24.4 56 13.3 50 50 VRB 5 7 30.09 1019 10 16 N/A
7:52 am 07:52 Cloudy 78 25.6 56 13.3 47 47 VRB 6 9 30.09 1019 10 16 N/A
8:52 am 08:52 Mostly Cloudy 81 27.2 57 13.9 44 44 WNW 9 15 30.08 1019 10 16 N/A
9:52 am 09:52 Partly Cloudy 83 28.3 56 13.3 40 40 NW 12 19 30.07 1018 10 16 N/A
10:52 am 10:52 Mostly Sunny 87 30.6 58 14.4 37 37 NW 17 28 30.06 1018 10 16 N/A
11:52 am 11:52 Mostly Sunny 89 31.7 60 15.6 38 38 NNW 14 22 30.04 1017 10 16 N/A
12:52 pm 12:52 Mostly Sunny 91 32.8 60 15.6 35 35 NNW 14 22 30.02 1017 10 16 N/A
1:52 pm 13:52 Mostly Sunny 91 32.8 59 15 34 34 NW 18 30 30.00 1016 10 16 N/A
2:52 pm 14:52 Partly Cloudy 92 33.3 60 15.6 34 34 NNW 18 30 29.98 1015 10 16 N/A
3:52 pm 15:52 Partly Cloudy 93 33.9 60 15.6 33 33 NW 15 24 29.96 1015 10 16 N/A
4:52 pm 16:52 Partly Cloudy 93 33.9 60 15.6 33 33 NNW 20 31 29.96 1014 10 16 N/A
5:52 pm 17:52 Partly Cloudy 92 33.3 60 15.6 34 34 NNW 14 22 29.95 1014 10 16 N/A
6:52 pm 18:52 Partly Cloudy 91 32.8 60 15.6 35 35 NW 12 19 29.96 1014 10 16 N/A
7:52 pm 19:52 Partly Cloudy 89 31.7 60 15.6 38 38 WNW 8 13 29.97 1015 10 16 N/A
8:52 pm 20:52 Partly Cloudy 88 31.1 61 16.1 40 40 WNW 10 17 29.98 1015 10 16 N/A
9:52 pm 21:52 Partly Cloudy 86 30 61 16.1 43 43 NW 9 15 30.00 1016 10 16 N/A
10:52 pm 22:52 Partly Cloudy 85 29.4 61 16.1 45 45 NW 10 17 30.02 1017 10 16 N/A
11:52 pm 23:52 Cloudy 84 28.9 61 16.1 46 46 NW 13 20 30.02 1017 10 16 N/A

Powered by AerisWeather